#Datum;Uhrzeit;WR;Pac;DaySum;Status;WR;Pac;DaySum;Status;Pdc1;Udc;Temp;WR;Pac;DaySum;Status;Pdc1;Udc;Temp;WR;Pac;DaySum;Status;Pdc1;Udc;Temp;WR;Pac;DaySum;Status;Pdc1;Pdc2;Udc1;Udc2;Temp;WR;Pac;DaySum;Status;Pdc1;Pdc2;Udc1;Udc2;Temp;WR;Pac;DaySum;Status;Pdc1;Udc;Temp;WR;Pac;DaySum;Status;Pdc1;Udc;Temp;WR;Pac;DaySum;Status;Pdc1;Udc;Temp
17.02.20;23:55:00;1;289;20059;0;2;0;11292;0;0;0;0;3;0;7495;0;0;0;0;4;0;11226;0;0;0;0;5;0;28667;0;0;0;0;0;0;6;0;21636;0;0;0;0;0;0;7;0;16939;0;0;0;0;8;0;16792;0;0;0;0;9;0;9226;0;0;0;0
17.02.20;23:50:00;1;244;20034;0;2;0;11292;0;0;0;0;3;0;7495;0;0;0;0;4;0;11226;0;0;0;0;5;0;28667;0;0;0;0;0;0;6;0;21636;0;0;0;0;0;0;7;0;16939;0;0;0;0;8;0;16792;0;0;0;0;9;0;9226;0;0;0;0
17.02.20;23:45:00;1;227;20012;0;2;0;11292;0;0;0;0;3;0;7495;0;0;0;0;4;0;11226;0;0;0;0;5;0;28667;0;0;0;0;0;0;6;0;21636;0;0;0;0;0;0;7;0;16939;0;0;0;0;8;0;16792;0;0;0;0;9;0;9226;0;0;0;0
17.02.20;23:40:00;1;228;19993;0;2;0;11292;0;0;0;0;3;0;7495;0;0;0;0;4;0;11226;0;0;0;0;5;0;28667;0;0;0;0;0;0;6;0;21636;0;0;0;0;0;0;7;0;16939;0;0;0;0;8;0;16792;0;0;0;0;9;0;9226;0;0;0;0
17.02.20;23:35:00;1;228;19974;0;2;0;11292;0;0;0;0;3;0;7495;0;0;0;0;4;0;11226;0;0;0;0;5;0;28667;0;0;0;0;0;0;6;0;21636;0;0;0;0;0;0;7;0;16939;0;0;0;0;8;0;16792;0;0;0;0;9;0;9226;0;0;0;0
17.02.20;23:30:00;1;274;19955;0;2;0;11292;0;0;0;0;3;0;7495;0;0;0;0;4;0;11226;0;0;0;0;5;0;28667;0;0;0;0;0;0;6;0;21636;0;0;0;0;0;0;7;0;16939;0;0;0;0;8;0;16792;0;0;0;0;9;0;9226;0;0;0;0
17.02.20;23:25:00;1;293;19932;0;2;0;11292;0;0;0;0;3;0;7495;0;0;0;0;4;0;11226;0;0;0;0;5;0;28667;0;0;0;0;0;0;6;0;21636;0;0;0;0;0;0;7;0;16939;0;0;0;0;8;0;16792;0;0;0;0;9;0;9226;0;0;0;0
17.02.20;23:20:00;1;332;19907;0;2;0;11292;0;0;0;0;3;0;7495;0;0;0;0;4;0;11226;0;0;0;0;5;0;28667;0;0;0;0;0;0;6;0;21636;0;0;0;0;0;0;7;0;16939;0;0;0;0;8;0;16792;0;0;0;0;9;0;9226;0;0;0;0
17.02.20;23:15:00;1;337;19878;0;2;0;11292;0;0;0;0;3;0;7495;0;0;0;0;4;0;11226;0;0;0;0;5;0;28667;0;0;0;0;0;0;6;0;21636;0;0;0;0;0;0;7;0;16939;0;0;0;0;8;0;16792;0;0;0;0;9;0;9226;0;0;0;0
17.02.20;23:10:00;1;339;19850;0;2;0;11292;0;0;0;0;3;0;7495;0;0;0;0;4;0;11226;0;0;0;0;5;0;28667;0;0;0;0;0;0;6;0;21636;0;0;0;0;0;0;7;0;16939;0;0;0;0;8;0;16792;0;0;0;0;9;0;9226;0;0;0;0
17.02.20;23:05:00;1;346;19822;0;2;0;11292;0;0;0;0;3;0;7495;0;0;0;0;4;0;11226;0;0;0;0;5;0;28667;0;0;0;0;0;0;6;0;21636;0;0;0;0;0;0;7;0;16939;0;0;0;0;8;0;16792;0;0;0;0;9;0;9226;0;0;0;0
17.02.20;23:00:00;1;290;19794;0;2;0;11292;0;0;0;0;3;0;7495;0;0;0;0;4;0;11226;0;0;0;0;5;0;28667;0;0;0;0;0;0;6;0;21636;0;0;0;0;0;0;7;0;16939;0;0;0;0;8;0;16792;0;0;0;0;9;0;9226;0;0;0;0
17.02.20;22:55:00;1;298;19770;0;2;0;11292;0;0;0;0;3;0;7495;0;0;0;0;4;0;11226;0;0;0;0;5;0;28667;2;0;0;0;0;0;6;0;21636;2;0;0;0;0;0;7;0;16939;0;0;0;0;8;0;16792;0;0;0;0;9;0;9226;0;0;0;0
17.02.20;22:50:00;1;297;19744;0;2;0;11292;0;0;0;0;3;0;7495;0;0;0;0;4;0;11226;0;0;0;0;5;0;28667;2;0;0;0;0;0;6;0;21636;2;0;0;0;0;0;7;0;16939;0;0;0;0;8;0;16792;0;0;0;0;9;0;9226;0;0;0;0
17.02.20;22:45:00;1;281;19720;0;2;0;11292;0;0;0;0;3;0;7495;0;0;0;0;4;0;11226;0;0;0;0;5;0;28667;2;0;0;0;0;0;6;0;21636;2;0;0;0;0;0;7;0;16939;0;0;0;0;8;0;16792;0;0;0;0;9;0;9226;0;0;0;0
17.02.20;22:40:00;1;458;19696;0;2;0;11292;0;0;0;0;3;0;7495;0;0;0;0;4;0;11226;0;0;0;0;5;0;28667;2;0;0;0;0;0;6;0;21636;2;0;0;0;0;0;7;0;16939;0;0;0;0;8;0;16792;0;0;0;0;9;0;9226;0;0;0;0
17.02.20;22:35:00;1;1179;19647;0;2;0;11292;0;0;0;0;3;0;7495;0;0;0;0;4;0;11226;0;0;0;0;5;0;28667;2;0;0;0;0;0;6;0;21636;2;0;0;0;0;0;7;0;16939;0;0;0;0;8;0;16792;0;0;0;0;9;0;9226;0;0;0;0
17.02.20;22:30:00;1;337;19569;0;2;0;11292;0;0;0;0;3;0;7495;0;0;0;0;4;0;11226;0;0;0;0;5;0;28667;2;0;0;0;0;0;6;0;21636;2;0;0;0;0;0;7;0;16939;0;0;0;0;8;0;16792;0;0;0;0;9;0;9226;0;0;0;0
17.02.20;22:25:00;1;361;19541;0;2;0;11292;0;0;0;0;3;0;7495;0;0;0;0;4;0;11226;0;0;0;0;5;0;28667;2;0;0;0;0;0;6;0;21636;2;0;0;0;0;0;7;0;16939;0;0;0;0;8;0;16792;0;0;0;0;9;0;9226;0;0;0;0
17.02.20;22:20:00;1;396;19510;0;2;0;11292;0;0;0;0;3;0;7495;0;0;0;0;4;0;11226;0;0;0;0;5;0;28667;2;0;0;0;0;0;6;0;21636;2;0;0;0;0;0;7;0;16939;0;0;0;0;8;0;16792;0;0;0;0;9;0;9226;0;0;0;0
17.02.20;22:15:00;1;306;19476;0;2;0;11292;0;0;0;0;3;0;7495;0;0;0;0;4;0;11226;0;0;0;0;5;0;28667;2;0;0;0;0;0;6;0;21636;2;0;0;0;0;0;7;0;16939;0;0;0;0;8;0;16792;0;0;0;0;9;0;9226;0;0;0;0
17.02.20;22:10:00;1;364;19451;0;2;0;11292;0;0;0;0;3;0;7495;0;0;0;0;4;0;11226;0;0;0;0;5;0;28667;2;0;0;0;0;0;6;0;21636;2;0;0;0;0;0;7;0;16939;0;0;0;0;8;0;16792;0;0;0;0;9;0;9226;0;0;0;0
17.02.20;22:05:00;1;669;19418;0;2;0;11292;0;0;0;0;3;0;7495;0;0;0;0;4;0;11226;0;0;0;0;5;0;28667;2;0;0;0;0;0;6;0;21636;2;0;0;0;0;0;7;0;16939;0;0;0;0;8;0;16792;0;0;0;0;9;0;9226;0;0;0;0
17.02.20;22:00:00;1;913;19361;0;2;0;11292;0;0;0;0;3;0;7495;0;0;0;0;4;0;11226;0;0;0;0;5;0;28667;2;0;0;0;0;0;6;0;21636;2;0;0;0;0;0;7;0;16939;0;0;0;0;8;0;16792;0;0;0;0;9;0;9226;0;0;0;0
17.02.20;21:55:00;1;1385;19281;0;2;0;11292;0;0;0;0;3;0;7495;0;0;0;0;4;0;11226;0;0;0;0;5;0;28667;2;0;0;0;0;0;6;0;21636;2;0;0;0;0;0;7;0;16939;0;0;0;0;8;0;16792;0;0;0;0;9;0;9226;0;0;0;0
17.02.20;21:50:00;1;1431;19165;0;2;0;11292;0;0;0;0;3;0;7495;0;0;0;0;4;0;11226;0;0;0;0;5;0;28667;2;0;0;0;0;0;6;0;21636;2;0;0;0;0;0;7;0;16939;0;0;0;0;8;0;16792;0;0;0;0;9;0;9226;0;0;0;0
17.02.20;21:45:00;1;1410;19046;0;2;0;11292;0;0;0;0;3;0;7495;0;0;0;0;4;0;11226;0;0;0;0;5;0;28667;2;0;0;0;0;0;6;0;21636;2;0;0;0;0;0;7;0;16939;0;0;0;0;8;0;16792;0;0;0;0;9;0;9226;0;0;0;0
17.02.20;21:40:00;1;1459;18930;0;2;0;11292;0;0;0;0;3;0;7495;0;0;0;0;4;0;11226;0;0;0;0;5;0;28667;2;0;0;0;0;0;6;0;21636;2;0;0;0;0;0;7;0;16939;0;0;0;0;8;0;16792;0;0;0;0;9;0;9226;0;0;0;0
17.02.20;21:35:00;1;1525;18807;0;2;0;11292;0;0;0;0;3;0;7495;0;0;0;0;4;0;11226;0;0;0;0;5;0;28667;2;0;0;0;0;0;6;0;21636;2;0;0;0;0;0;7;0;16939;0;0;0;0;8;0;16792;0;0;0;0;9;0;9226;0;0;0;0
17.02.20;21:30:00;1;1522;18681;0;2;0;11292;0;0;0;0;3;0;7495;0;0;0;0;4;0;11226;0;0;0;0;5;0;28667;2;0;0;0;0;0;6;0;21636;2;0;0;0;0;0;7;0;16939;0;0;0;0;8;0;16792;0;0;0;0;9;0;9226;0;0;0;0
17.02.20;21:25:00;1;1477;18555;0;2;0;11292;0;0;0;0;3;0;7495;0;0;0;0;4;0;11226;0;0;0;0;5;0;28667;2;0;0;0;0;0;6;0;21636;2;0;0;0;0;0;7;0;16939;0;0;0;0;8;0;16792;0;0;0;0;9;0;9226;0;0;0;0
17.02.20;21:20:00;1;1528;18432;0;2;0;11292;0;0;0;0;3;0;7495;0;0;0;0;4;0;11226;0;0;0;0;5;0;28667;2;0;0;0;0;0;6;0;21636;2;0;0;0;0;0;7;0;16939;0;0;0;0;8;0;16792;0;0;0;0;9;0;9226;0;0;0;0
17.02.20;21:15:00;1;1538;18306;0;2;0;11292;0;0;0;0;3;0;7495;0;0;0;0;4;0;11226;0;0;0;0;5;0;28667;2;0;0;0;0;0;6;0;21636;2;0;0;0;0;0;7;0;16939;0;0;0;0;8;0;16792;0;0;0;0;9;0;9226;0;0;0;0
17.02.20;21:10:00;1;1508;18179;0;2;0;11292;0;0;0;0;3;0;7495;0;0;0;0;4;0;11226;0;0;0;0;5;0;28667;2;0;0;0;0;0;6;0;21636;2;0;0;0;0;0;7;0;16939;0;0;0;0;8;0;16792;0;0;0;0;9;0;9226;0;0;0;0
17.02.20;21:05:00;1;1500;18054;0;2;0;11292;0;0;0;0;3;0;7495;0;0;0;0;4;0;11226;0;0;0;0;5;0;28667;2;0;0;0;0;0;6;0;21636;2;0;0;0;0;0;7;0;16939;0;0;0;0;8;0;16792;0;0;0;0;9;0;9226;0;0;0;0
17.02.20;21:00:00;1;1430;17930;0;2;0;11292;0;0;0;0;3;0;7495;0;0;0;0;4;0;11226;0;0;0;0;5;0;28667;2;0;0;0;0;0;6;0;21636;2;0;0;0;0;0;7;0;16939;0;0;0;0;8;0;16792;0;0;0;0;9;0;9226;0;0;0;0
17.02.20;20:55:00;1;1446;17812;0;2;0;11292;0;0;0;0;3;0;7495;0;0;0;0;4;0;11226;0;0;0;0;5;0;28667;2;0;0;0;0;0;6;0;21636;2;0;0;0;0;0;7;0;16939;0;0;0;0;8;0;16792;0;0;0;0;9;0;9226;0;0;0;0
17.02.20;20:50:00;1;1393;17691;0;2;0;11292;0;0;0;0;3;0;7495;0;0;0;0;4;0;11226;0;0;0;0;5;0;28667;2;0;0;0;0;0;6;0;21636;2;0;0;0;0;0;7;0;16939;0;0;0;0;8;0;16792;0;0;0;0;9;0;9226;0;0;0;0
17.02.20;20:45:00;1;1064;17581;0;2;0;11292;0;0;0;0;3;0;7495;0;0;0;0;4;0;11226;0;0;0;0;5;0;28667;2;0;0;0;0;0;6;0;21636;2;0;0;0;0;0;7;0;16939;0;0;0;0;8;0;16792;0;0;0;0;9;0;9226;0;0;0;0
17.02.20;20:40:00;1;1070;17492;0;2;0;11292;0;0;0;0;3;0;7495;0;0;0;0;4;0;11226;0;0;0;0;5;0;28667;2;0;0;0;0;0;6;0;21636;2;0;0;0;0;0;7;0;16939;0;0;0;0;8;0;16792;0;0;0;0;9;0;9226;0;0;0;0
17.02.20;20:35:00;1;1083;17401;0;2;0;11292;0;0;0;0;3;0;7495;0;0;0;0;4;0;11226;0;0;0;0;5;0;28667;2;0;0;0;0;0;6;0;21636;2;0;0;0;0;0;7;0;16939;0;0;0;0;8;0;16792;0;0;0;0;9;0;9226;0;0;0;0
17.02.20;20:30:00;1;1190;17311;0;2;0;11292;0;0;0;0;3;0;7495;0;0;0;0;4;0;11226;0;0;0;0;5;0;28667;2;0;0;0;0;0;6;0;21636;2;0;0;0;0;0;7;0;16939;0;0;0;0;8;0;16792;0;0;0;0;9;0;9226;0;0;0;0
17.02.20;20:25:00;1;1329;17210;0;2;0;11292;0;0;0;0;3;0;7495;0;0;0;0;4;0;11226;0;0;0;0;5;0;28667;2;0;0;0;0;0;6;0;21636;2;0;0;0;0;0;7;0;16939;0;0;0;0;8;0;16792;0;0;0;0;9;0;9226;0;0;0;0
17.02.20;20:20:00;1;1347;17097;0;2;0;11292;0;0;0;0;3;0;7495;0;0;0;0;4;0;11226;0;0;0;0;5;0;28667;2;0;0;0;0;0;6;0;21636;2;0;0;0;0;0;7;0;16939;0;0;0;0;8;0;16792;0;0;0;0;9;0;9226;0;0;0;0
17.02.20;20:15:00;1;1326;16984;0;2;0;11292;0;0;0;0;3;0;7495;0;0;0;0;4;0;11226;0;0;0;0;5;0;28667;2;0;0;0;0;0;6;0;21636;2;0;0;0;0;0;7;0;16939;0;0;0;0;8;0;16792;0;0;0;0;9;0;9226;0;0;0;0
17.02.20;20:10:00;1;1292;16876;0;2;0;11292;0;0;0;0;3;0;7495;0;0;0;0;4;0;11226;0;0;0;0;5;0;28667;2;0;0;0;0;0;6;0;21636;2;0;0;0;0;0;7;0;16939;0;0;0;0;8;0;16792;0;0;0;0;9;0;9226;0;0;0;0
17.02.20;20:05:00;1;1426;16765;0;2;0;11292;0;0;0;0;3;0;7495;0;0;0;0;4;0;11226;0;0;0;0;5;0;28667;2;0;0;0;0;0;6;0;21636;2;0;0;0;0;0;7;0;16939;0;0;0;0;8;0;16792;0;0;0;0;9;0;9226;0;0;0;0
17.02.20;20:00:00;1;1477;16645;0;2;0;11292;0;0;0;0;3;0;7495;0;0;0;0;4;0;11226;0;0;0;0;5;0;28667;2;0;0;0;0;0;6;0;21636;2;0;0;0;0;0;7;0;16939;0;0;0;0;8;0;16792;0;0;0;0;9;0;9226;0;0;0;0
17.02.20;19:55:00;1;2134;16519;0;2;0;11292;0;0;0;0;3;0;7495;0;0;0;0;4;0;11226;0;0;0;0;5;0;28667;2;0;0;0;0;0;6;0;21636;2;0;0;0;0;0;7;0;16939;0;0;0;0;8;0;16792;0;0;0;0;9;0;9226;0;0;0;0
17.02.20;19:50:00;1;2483;16332;0;2;0;11292;0;0;0;0;3;0;7495;0;0;0;0;4;0;11226;0;0;0;0;5;0;28667;2;0;0;0;0;0;6;0;21636;2;0;0;0;0;0;7;0;16939;0;0;0;0;8;0;16792;0;0;0;0;9;0;9226;0;0;0;0
17.02.20;19:45:00;1;1476;16137;0;2;0;11292;0;0;0;0;3;0;7495;0;0;0;0;4;0;11226;0;0;0;0;5;0;28667;2;0;0;0;0;0;6;0;21636;2;0;0;0;0;0;7;0;16939;0;0;0;0;8;0;16792;0;0;0;0;9;0;9226;0;0;0;0
17.02.20;19:40:00;1;1635;16011;0;2;0;11292;0;0;0;0;3;0;7495;0;0;0;0;4;0;11226;0;0;0;0;5;0;28667;2;0;0;0;0;0;6;0;21636;2;0;0;0;0;0;7;0;16939;0;0;0;0;8;0;16792;0;0;0;0;9;0;9226;0;0;0;0
17.02.20;19:35:00;1;1586;15874;0;2;0;11292;0;0;0;0;3;0;7495;0;0;0;0;4;0;11226;0;0;0;0;5;0;28667;2;0;0;0;0;0;6;0;21636;2;0;0;0;0;0;7;0;16939;0;0;0;0;8;0;16792;0;0;0;0;9;0;9226;0;0;0;0
17.02.20;19:30:00;1;1703;15737;0;2;0;11292;0;0;0;0;3;0;7495;0;0;0;0;4;0;11226;0;0;0;0;5;0;28667;2;0;0;0;0;0;6;0;21636;2;0;0;0;0;0;7;0;16939;0;0;0;0;8;0;16792;0;0;0;0;9;0;9226;0;0;0;0
17.02.20;19:25:00;1;1629;15598;0;2;0;11292;0;0;0;0;3;0;7495;0;0;0;0;4;0;11226;0;0;0;0;5;0;28667;2;0;0;0;0;0;6;0;21636;2;0;0;0;0;0;7;0;16939;0;0;0;0;8;0;16792;0;0;0;0;9;0;9226;0;0;0;0
17.02.20;19:20:00;1;1465;15464;0;2;0;11292;0;0;0;0;3;0;7495;0;0;0;0;4;0;11226;0;0;0;0;5;0;28667;2;0;0;0;0;0;6;0;21636;2;0;0;0;0;0;7;0;16939;0;0;0;0;8;0;16792;0;0;0;0;9;0;9226;0;0;0;0
17.02.20;19:15:00;1;1493;15344;0;2;0;11292;0;0;0;0;3;0;7495;0;0;0;0;4;0;11226;0;0;0;0;5;0;28667;2;0;0;0;0;0;6;0;21636;2;0;0;0;0;0;7;0;16939;0;0;0;0;8;0;16792;0;0;0;0;9;0;9226;0;0;0;0
17.02.20;19:10:00;1;1749;15216;0;2;0;11292;0;0;0;0;3;0;7495;0;0;0;0;4;0;11226;0;0;0;0;5;0;28667;2;0;0;0;0;0;6;0;21636;2;0;0;0;0;0;7;0;16939;0;0;0;0;8;0;16792;0;0;0;0;9;0;9226;0;0;0;0
17.02.20;19:05:00;1;1734;15073;0;2;0;11292;0;0;0;0;3;0;7495;0;0;0;0;4;0;11226;0;0;0;0;5;0;28667;2;0;0;0;0;0;6;0;21636;2;0;0;0;0;0;7;0;16939;0;0;0;0;8;0;16792;0;0;0;0;9;0;9226;0;0;0;0
17.02.20;19:00:00;1;3379;14876;0;2;0;11292;0;0;0;0;3;0;7495;0;0;0;0;4;0;11226;0;0;0;0;5;0;28667;2;0;0;0;0;0;6;0;21636;2;0;0;0;0;0;7;0;16939;0;0;0;0;8;0;16792;0;0;0;0;9;0;9226;0;0;0;0
17.02.20;18:55:00;1;3159;14592;0;2;0;11292;0;0;0;0;3;0;7495;0;0;0;0;4;0;11226;0;0;0;0;5;0;28667;2;0;0;0;0;0;6;0;21636;2;0;0;0;0;0;7;0;16939;0;0;0;0;8;0;16792;0;0;0;0;9;0;9226;0;0;0;0
17.02.20;18:50:00;1;2560;14331;0;2;0;11292;0;0;0;0;3;0;7495;0;0;0;0;4;0;11226;0;0;0;0;5;0;28667;2;0;0;0;0;0;6;0;21636;2;0;0;0;0;0;7;0;16939;0;0;0;0;8;0;16792;0;0;0;0;9;0;9226;0;0;0;0
17.02.20;18:45:00;1;3361;14128;0;2;0;11292;0;0;0;0;3;0;7495;0;0;0;0;4;0;11226;0;0;0;0;5;0;28667;2;0;0;0;0;0;6;0;21636;2;0;0;0;0;0;7;0;16939;0;0;0;0;8;0;16792;0;0;0;0;9;0;9226;0;0;0;0
17.02.20;18:40:00;1;1277;13887;0;2;0;11292;0;0;0;0;3;0;7495;0;0;0;0;4;0;11226;0;0;0;0;5;0;28667;2;0;0;0;0;0;6;0;21636;2;0;0;0;0;0;7;0;16939;0;0;0;0;8;0;16792;0;0;0;0;9;0;9226;0;0;0;0
17.02.20;18:35:00;1;1147;13780;0;2;0;11292;0;0;0;0;3;0;7495;0;0;0;0;4;0;11226;0;0;0;0;5;0;28667;2;0;0;0;0;0;6;0;21636;2;0;0;0;0;0;7;0;16939;0;0;0;0;8;0;16792;0;0;0;0;9;0;9226;0;0;0;0
17.02.20;18:30:00;1;1221;13680;0;2;0;11292;0;0;0;0;3;0;7495;0;0;0;0;4;0;11226;0;0;0;0;5;0;28667;2;0;0;0;0;0;6;0;21636;2;0;0;0;0;0;7;0;16939;0;0;0;0;8;0;16792;0;0;0;0;9;0;9226;0;0;0;0
17.02.20;18:25:00;1;1475;13577;0;2;0;11292;0;0;0;0;3;0;7495;0;0;0;0;4;0;11226;0;0;0;0;5;0;28667;2;0;0;0;0;0;6;0;21636;2;0;0;0;0;0;7;0;16939;0;0;0;0;8;0;16792;0;0;0;0;9;0;9226;0;0;0;0
17.02.20;18:20:00;1;1257;13454;0;2;0;11292;0;0;0;0;3;0;7495;0;0;0;0;4;0;11226;0;0;0;0;5;0;28667;2;0;0;0;0;0;6;0;21636;2;0;0;0;0;0;7;0;16939;0;0;0;0;8;0;16792;0;0;0;0;9;0;9226;0;0;0;0
17.02.20;18:15:00;1;1167;13349;0;2;0;11292;0;0;0;0;3;0;7495;0;0;0;0;4;0;11226;0;0;0;0;5;0;28667;2;0;0;0;0;0;6;0;21636;2;0;0;0;0;0;7;0;16939;0;0;0;0;8;0;16792;0;0;0;0;9;0;9226;0;0;0;0
17.02.20;18:10:00;1;770;13255;0;2;0;11292;0;0;0;0;3;0;7495;0;0;0;0;4;0;11226;0;0;0;0;5;0;28667;2;0;0;0;0;0;6;0;21636;2;0;0;0;0;0;7;0;16939;0;0;0;0;8;0;16792;0;0;0;0;9;0;9226;0;0;0;0
17.02.20;18:05:00;1;651;13190;0;2;0;11292;0;0;0;0;3;0;7495;0;0;0;0;4;0;11226;0;0;0;0;5;0;28667;2;0;0;0;0;0;6;0;21636;2;0;0;0;0;0;7;0;16939;0;0;0;0;8;0;16792;0;0;0;0;9;0;9226;0;0;0;0
17.02.20;18:00:00;1;649;13135;0;2;0;11292;0;0;0;0;3;0;7495;0;0;0;0;4;0;11226;0;0;0;0;5;0;28667;2;0;0;0;0;0;6;0;21636;2;0;0;0;0;0;7;0;16939;0;0;0;0;8;0;16792;0;0;0;0;9;0;9226;0;0;0;0
17.02.20;17:55:00;1;650;13081;0;2;0;11292;0;0;0;0;3;0;7495;0;0;0;0;4;0;11226;0;0;0;0;5;0;28667;2;0;0;0;0;0;6;0;21636;2;0;0;0;0;0;7;0;16939;0;0;0;0;8;0;16792;0;0;0;0;9;0;9226;0;0;0;0
17.02.20;17:50:00;1;653;13027;0;2;0;11292;0;0;0;0;3;0;7495;0;0;0;0;4;0;11226;0;0;0;0;5;0;28667;2;0;0;0;0;0;6;0;21636;2;0;0;0;0;0;7;0;16939;0;0;0;0;8;0;16792;0;0;0;0;9;0;9226;0;0;0;0
17.02.20;17:45:00;1;721;12972;0;2;0;11292;0;0;0;0;3;0;7495;0;0;0;0;4;0;11226;0;0;0;0;5;0;28667;2;0;0;0;0;0;6;0;21636;2;0;0;0;0;0;7;0;16939;0;0;0;0;8;0;16792;0;0;0;0;9;0;9226;0;0;0;0
17.02.20;17:40:00;1;701;12912;0;2;0;11292;0;0;0;0;3;0;7495;0;0;0;0;4;0;11226;0;0;0;0;5;0;28667;2;0;0;0;0;0;6;0;21636;2;0;0;0;0;0;7;0;16939;0;0;0;0;8;0;16792;0;0;0;0;9;0;9226;0;0;0;0
17.02.20;17:35:00;1;728;12854;0;2;0;11292;0;0;0;0;3;0;7495;0;0;41;2;4;0;11226;0;0;0;0;5;0;28667;2;0;0;0;0;0;6;0;21636;2;0;0;0;0;0;7;0;16939;0;0;0;0;8;0;16792;0;0;0;0;9;0;9226;0;0;0;0
17.02.20;17:30:00;1;777;12793;0;2;0;11292;0;0;236;12;3;0;7495;6;0;309;17;4;0;11226;0;0;58;14;5;0;28667;2;0;0;10;9;3;6;0;21636;2;0;0;0;0;0;7;0;16939;0;0;0;0;8;0;16792;0;0;0;0;9;0;9226;0;0;0;0
17.02.20;17:25:00;1;703;12728;0;2;0;11292;6;0;328;14;3;0;7495;6;0;405;17;4;0;11226;1;0;124;17;5;0;28667;2;0;0;327;366;25;6;0;21636;23;6;3;245;356;23;7;0;16939;0;0;158;10;8;0;16792;0;0;160;10;9;0;9226;0;0;226;10
17.02.20;17:20:00;1;689;12670;0;2;0;11292;6;0;360;14;3;0;7495;6;1;438;17;4;0;11226;1;0;172;17;5;0;28667;23;0;0;397;508;25;6;0;21636;23;3;6;481;301;24;7;0;16939;6;0;331;18;8;0;16792;6;0;335;17;9;0;9226;6;0;355;14
17.02.20;17:15:00;1;707;12612;0;2;0;11292;6;0;384;14;3;0;7495;6;0;487;17;4;0;11226;1;0;203;18;5;10;28667;1;0;2;401;635;26;6;0;21636;23;8;2;182;560;24;7;0;16939;6;0;404;18;8;0;16792;6;2;395;17;9;0;9226;6;1;423;14
17.02.20;17:10:00;1;590;12554;0;2;0;11292;6;0;380;14;3;2;7495;3;5;442;18;4;0;11226;1;0;207;18;5;9;28666;1;0;2;399;624;26;6;0;21636;23;6;2;251;494;24;7;0;16939;6;1;393;18;8;0;16792;6;0;279;12;9;0;9226;6;0;432;14
17.02.20;17:05:00;1;592;12505;0;2;0;11292;6;0;372;15;3;1;7494;6;3;447;18;4;0;11226;1;0;193;18;5;8;28665;1;0;2;390;592;26;6;0;21636;23;2;5;488;253;25;7;0;16939;6;0;377;18;8;0;16792;6;0;383;18;9;0;9226;6;0;400;14
17.02.20;17:00:00;1;595;12456;0;2;0;11292;6;0;372;15;3;0;7494;6;2;444;18;4;0;11226;1;0;194;19;5;8;28665;1;0;2;391;593;27;6;0;21636;23;9;1;182;544;25;7;0;16939;6;0;377;18;8;0;16792;6;0;383;18;9;0;9226;6;0;413;14
17.02.20;16:55:00;1;577;12406;0;2;0;11292;6;0;389;15;3;3;7494;6;9;442;18;4;0;11226;3;0;207;19;5;13;28664;1;0;1;407;646;27;6;0;21636;23;9;1;226;563;26;7;0;16939;6;0;422;18;8;0;16792;4;0;417;18;9;0;9226;6;0;458;14
17.02.20;16:50:00;1;813;12324;0;2;0;11292;6;0;395;15;3;1;7494;6;5;478;18;4;0;11226;3;0;215;20;5;75;28662;4;7;10;369;582;28;6;30;21636;1;11;23;522;499;27;7;0;16939;6;2;415;19;8;0;16792;3;2;425;18;9;0;9226;3;2;365;12
17.02.20;16:45:00;1;869;12271;0;2;6;11292;6;13;403;16;3;1;7494;6;7;502;19;4;1;11226;3;1;199;20;5;127;28655;4;38;37;369;582;28;6;83;21633;4;47;60;477;453;27;7;0;16939;0;0;192;7;8;1;16792;6;8;355;14;9;1;9226;6;6;392;12
17.02.20;16:40:00;1;674;12203;0;2;6;11291;4;12;410;16;3;5;7494;4;13;486;19;4;8;11226;3;9;199;20;5;148;28644;4;47;48;369;582;28;6;102;21626;4;42;55;477;453;27;7;3;16939;6;9;471;19;8;5;16792;6;9;473;19;9;2;9226;6;6;521;15
17.02.20;16:35:00;1;638;12146;0;2;0;11290;6;0;402;16;3;3;7493;3;12;459;19;4;0;11226;3;0;199;20;5;87;28632;4;16;17;369;581;28;6;58;21618;4;19;26;477;453;27;7;0;16938;6;4;257;11;8;0;16792;0;0;182;7;9;2;9225;6;3;386;12
17.02.20;16:30:00;1;663;12092;0;2;0;11290;6;0;402;17;3;0;7493;6;5;491;19;4;0;11226;3;0;199;21;5;90;28625;4;16;19;369;581;28;6;57;21613;4;16;20;477;453;27;7;0;16938;6;2;441;19;8;1;16792;6;1;366;15;9;1;9225;0;2;149;5
17.02.20;16:25:00;1;704;12037;0;2;0;11290;6;0;408;17;3;1;7493;6;7;473;19;4;0;11226;3;0;199;21;5;108;28617;4;31;29;369;582;28;6;73;21608;4;31;38;477;453;27;7;2;16938;4;4;449;20;8;0;16791;6;0;179;7;9;0;9225;6;0;523;16
17.02.20;16:20:00;1;603;11980;0;2;12;11290;6;24;390;17;3;1;7493;6;7;503;20;4;19;11226;3;20;199;21;5;133;28608;4;41;40;369;582;28;6;90;21601;4;33;43;477;453;27;7;7;16938;3;18;429;20;8;6;16791;3;19;437;20;9;2;9225;3;11;481;16
17.02.20;16:15:00;1;664;11929;0;2;0;11290;6;0;413;18;3;2;7493;6;9;501;20;4;5;11224;3;5;199;21;5;123;28597;4;39;38;369;582;28;6;86;21594;4;41;52;477;453;27;7;1;16936;0;8;264;12;8;2;16791;6;17;435;20;9;0;9225;6;5;509;16
17.02.20;16:10:00;1;495;11878;0;2;44;11290;6;72;369;19;3;6;7493;4;16;484;20;4;19;11224;3;19;198;21;5;163;28587;4;61;55;369;582;29;6;109;21587;4;57;75;477;453;27;7;22;16936;6;35;419;21;8;20;16791;6;34;419;21;9;6;9225;6;14;492;17
17.02.20;16:05:00;1;524;11837;0;2;83;11286;4;118;365;19;3;17;7492;3;30;505;21;4;39;11222;3;41;197;22;5;232;28573;4;97;87;369;582;29;6;159;21577;4;64;70;477;453;28;7;45;16934;4;74;310;16;8;62;16789;4;94;409;21;9;0;9224;6;0;447;13
17.02.20;16:00:00;1;522;11794;0;2;144;11279;4;179;367;20;3;80;7490;4;118;477;22;4;100;11219;3;105;210;22;5;338;28553;4;157;138;369;581;29;6;233;21563;4;139;150;477;453;28;7;122;16929;4;161;429;21;8;128;16784;4;161;435;21;9;57;9224;6;84;500;18
17.02.20;15:55:00;1;523;11750;0;2;168;11267;4;205;370;20;3;97;7484;4;136;475;22;4;129;11211;5;134;217;22;5;387;28524;4;187;159;369;581;29;6;268;21544;4;129;140;477;453;28;7;155;16919;4;194;443;22;8;163;16773;4;197;440;21;9;85;9220;4;117;485;18
17.02.20;15:50:00;1;507;11706;0;2;178;11253;4;216;370;21;3;101;7476;4;140;493;22;4;130;11200;5;135;215;23;5;390;28492;4;184;159;377;581;29;6;266;21521;4;134;135;477;453;28;7;144;16906;4;189;432;22;8;152;16760;4;187;436;22;9;81;9212;4;113;482;18
17.02.20;15:45:00;1;681;11663;0;2;148;11238;4;184;361;21;3;63;7467;4;84;486;22;4;101;11189;5;105;206;23;5;344;28459;4;159;136;374;582;29;6;242;21499;4;150;157;477;453;28;7;80;16894;4;105;269;13;8;140;16747;4;175;445;22;9;69;9206;4;91;468;19
17.02.20;15:40:00;1;723;11607;0;2;188;11226;4;228;384;22;3;97;7462;6;134;508;23;4;140;11181;3;146;212;23;5;452;28432;4;213;184;377;592;29;6;324;21480;4;163;170;524;506;28;7;144;16882;0;173;379;18;8;86;16736;4;127;386;18;9;64;9200;0;85;423;16
17.02.20;15:35:00;1;779;11546;0;2;340;11210;4;386;387;22;3;209;7454;4;254;499;24;4;292;11169;5;303;227;24;5;778;28390;4;379;328;401;638;29;6;586;21450;4;311;311;574;549;28;7;369;16870;4;409;456;22;8;369;16726;4;408;458;22;9;197;9195;4;233;504;20
17.02.20;15:30:00;1;728;11484;0;2;493;11182;4;544;389;23;3;308;7436;4;356;498;24;4;430;11145;5;448;234;24;5;1099;28323;4;555;462;406;650;30;6;828;21400;4;408;426;577;554;28;7;539;16839;4;594;456;23;8;549;16694;4;598;454;22;9;292;9178;4;335;502;20
17.02.20;15:25:00;1;829;11422;0;2;481;11141;4;530;390;23;3;298;7411;4;346;493;24;4;412;11109;5;429;230;24;5;1027;28231;4;518;434;408;644;30;6;773;21330;4;385;382;577;549;28;7;524;16796;4;574;455;23;8;435;16651;4;472;369;18;9;285;9155;4;326;510;20
17.02.20;15:20:00;1;889;11353;0;2;563;11101;4;615;394;24;3;351;7386;4;401;500;25;4;483;11075;5;502;230;25;5;1167;28146;4;597;493;410;647;30;6;881;21266;4;446;456;581;550;28;7;508;16752;4;550;384;19;8;612;16605;4;659;464;23;9;325;9131;4;369;515;21
17.02.20;15:15:00;1;1009;11278;0;2;557;11054;4;610;385;24;3;346;7357;4;399;496;25;4;470;11035;5;490;233;25;5;1143;28048;4;581;482;405;636;30;6;868;21192;4;454;467;577;554;28;7;626;16702;4;676;469;24;8;627;16555;4;680;464;23;9;337;9104;4;380;512;21
17.02.20;15:10:00;1;930;11196;0;2;614;11008;4;670;389;25;3;384;7328;4;437;504;26;4;527;10996;5;549;231;25;5;1276;27952;4;646;541;406;646;30;6;962;21118;4;511;519;581;552;29;7;419;16650;4;454;273;14;8;701;16501;4;755;470;24;9;376;9075;4;423;510;22
17.02.20;15:05:00;1;912;11119;0;2;836;10957;4;902;400;26;3;525;7296;4;584;504;26;4;727;10952;5;757;234;26;5;1710;27845;4;888;733;416;673;30;6;1288;21037;4;648;640;582;559;29;7;966;16592;4;1030;461;24;8;960;16443;4;1016;462;24;9;508;9045;4;563;520;22
17.02.20;15:00:00;1;882;11043;0;2;1257;10887;4;1336;403;27;3;793;7252;4;863;522;27;4;1080;10891;5;1125;240;26;5;2364;27695;4;1233;1026;421;663;31;6;1811;20924;4;938;914;596;569;29;7;1482;16511;4;1569;480;24;8;1222;16362;4;1287;393;20;9;798;9001;4;866;522;23
17.02.20;14:55:00;1;879;10969;0;2;1203;10782;4;1278;403;27;3;758;7186;4;827;526;27;4;1021;10801;5;1064;241;26;5;2247;27498;4;1175;972;419;675;31;6;1716;20773;4;884;875;587;565;29;7;1485;16388;4;1564;474;24;8;1194;16240;4;1257;382;19;9;635;8918;0;688;423;18
17.02.20;14:50:00;1;860;10896;0;2;1075;10682;4;1147;401;27;3;683;7123;4;748;512;27;4;925;10716;5;963;235;27;5;2041;27315;4;1072;883;413;678;31;6;1560;20632;4;794;776;591;567;29;7;1233;16266;4;1317;475;25;8;832;16117;4;877;318;16;9;334;8869;4;365;259;11
17.02.20;14:45:00;1;849;10824;0;2;1055;10593;4;1124;397;27;3;672;7066;4;736;512;27;4;910;10639;5;948;237;27;5;2019;27145;4;1055;877;410;670;31;6;1551;20502;4;773;764;581;559;29;7;1267;16162;4;1344;469;25;8;1265;16012;4;1339;472;25;9;546;8800;0;594;424;18
17.02.20;14:40:00;1;818;10753;0;2;1091;10505;4;1166;402;28;3;693;7010;4;758;512;27;4;940;10564;5;979;236;27;5;2114;26978;4;1120;910;415;674;31;6;1612;20374;4;836;816;588;562;29;7;1278;16057;4;1353;467;25;8;829;15907;4;878;314;16;9;680;8757;4;743;518;23
17.02.20;14:35:00;1;1048;10685;0;2;1268;10414;4;1350;398;29;3;806;6953;4;874;509;28;4;1086;10486;5;1131;236;28;5;2403;26799;4;1270;1046;405;671;31;6;1833;20238;4;948;923;586;561;29;7;1201;15951;4;1267;368;20;8;1486;15803;4;1566;470;25;9;494;8700;4;531;310;14
17.02.20;14:30:00;1;1124;10584;0;2;1877;10308;4;1984;396;29;3;1188;6885;4;1273;519;28;4;1573;10395;5;1638;238;28;5;3310;26596;4;1794;1456;416;677;31;6;2494;20082;4;1298;1250;593;569;29;7;2126;15826;4;2242;472;25;8;1617;15680;4;1700;380;20;9;870;8631;4;934;426;19
17.02.20;14:25:00;1;860;10512;0;2;1875;10159;4;1980;404;29;3;1218;6791;4;1304;518;28;4;1645;10269;5;1714;241;28;5;3560;26313;4;1915;1568;421;675;31;6;2753;19868;4;1439;1397;594;565;29;7;2483;15656;4;2615;471;25;8;1910;15465;0;2000;380;20;9;1379;8547;4;1469;526;24
17.02.20;14:20:00;1;903;10439;0;2;1952;10001;4;2065;408;29;3;1239;6689;4;1324;512;28;4;1669;10131;5;1738;240;28;5;3594;26025;4;1937;1576;414;685;31;6;2775;19646;4;1429;1388;592;580;29;7;2427;15449;4;2539;477;25;8;2385;15317;4;2501;464;25;9;1288;8430;4;1371;512;25
17.02.20;14:15:00;1;864;10363;0;2;1932;9840;4;2038;401;29;3;1238;6586;4;1321;514;28;4;1678;9993;5;1748;240;28;5;3651;25716;4;1962;1613;415;683;31;6;2843;19411;4;1463;1428;596;569;29;7;2471;15249;4;2583;469;26;8;1405;15055;0;1465;284;15;9;1322;8325;4;1411;527;25